[[{"header":{"parameterUnit":"m.s-1","parameterCategory":1,"la1":30.2991,"la2":30.254,"lo1":-89.0895,"lo2":-89.0444,"dy":0.0017,"dx":0.0017,"nx":28,"ny":28,"refTime":"2024-02-21T09:00:00:Z","depth":0,"parameterNumber":2,"parameterNumberName":"U-component_of_WINDS"},"data":[0,0,0,0,0,0,0,0,0,0,0,0,0,0,0,0,0,0,0,0,0,0,0,0,0,0,0,0,0,0,0,0,0,0,0,0,0,0,0,0,0,0,0,0,0,0,0,0,0,0,0,0,0,0,0,0,0,0,-0.6199,-0.6198,0,-0.6117,-0.6116,-0.6115,-0.6104,-0.6104,-0.6105,-0.6106,-0.6024,-0.6021,-0.6018,0,0,0,0,0,0,0,0,0,0,0,0,0,-0.6348,-0.6345,-0.6199,-0.6198,-0.6197,-0.6117,-0.6116,-0.6115,-0.6104,-0.6104,-0.6105,-0.6106,-0.6025,-0.6021,-0.6018,0,0,0,0,0,0,0,0,0,0,0,0,0,-0.6276,-0.6345,-0.6199,-0.6182,-0.6179,-0.6117,-0.6116,-0.6114,-0.6103,-0.6105,-0.6106,-0.6107,-0.6026,-0.6022,-0.6017,-0.5968,0,0,-0.6004,-0.6002,0,0,0,0,0,0,0,0,-0.6281,-0.6271,-0.6185,-0.6183,-0.618,-0.6122,-0.6138,-0.6065,-0.6103,-0.6132,-0.6106,-0.6107,-0.6056,-0.6049,-0.6031,-0.5964,-0.596,-0.6004,-0.6001,-0.5999,-0.5998,0,0,0,0,0,0,0,-0.6286,-0.6275,-0.6167,-0.6184,-0.6181,-0.6179,-0.617,-0.6124,-0.6089,-0.613,-0.6129,-0.6119,-0.6054,-0.6035,-0.6029,-0.5959,-0.6004,-0.6,-0.5997,-0.5996,-0.5847,-0.5846,0,0,0,0,0,0,-0.6293,-0.6279,-0.6169,-0.6164,-0.6234,-0.6175,-0.6165,-0.6139,-0.6089,-0.6082,-0.6118,-0.6119,-0.6042,-0.6034,-0.6026,-0.5964,-0.5999,-0.5995,-0.5993,-0.5848,-0.5847,-0.5845,0,0,0,0,0,0,-0.6297,-0.6284,-0.6172,-0.6221,-0.6207,-0.6171,-0.6142,-0.6137,-0.6118,-0.608,-0.6074,-0.6105,-0.6043,-0.6032,-0.5982,-0.5961,-0.5993,-0.5989,-0.585,-0.5848,-0.5846,-0.584,0,0,0,0,0,0,-0.6301,-0.6285,-0.6265,-0.6221,-0.6204,-0.6129,-0.6141,-0.6135,-0.611,-0.611,-0.6066,-0.606,-0.6043,-0.5989,-0.5978,-0.5956,-0.5986,-0.5852,-0.5849,-0.5847,-0.5842,-0.5838,-0.5835,0,0,0,0,0,-0.6306,-0.6267,-0.6264,-0.6251,-0.6179,-0.6128,-0.6119,-0.6099,-0.6108,-0.6088,-0.6064,-0.6061,-0.5965,-0.5984,-0.5971,-0.5948,-0.5853,-0.585,-0.5847,-0.5844,-0.5839,-0.5835,0,0,0,0,0,0,-0.6311,-0.6261,-0.6257,-0.6202,-0.6169,-0.6126,-0.61,-0.6095,-0.6059,-0.606,-0.6038,-0.6028,-0.5979,-0.5959,-0.598,-0.5897,-0.591,-0.5904,-0.5912,-0.5907,-0.5904,-0.591,-0.5982,0,0,0,0,0,-0.6306,-0.6268,-0.6227,-0.6183,-0.6166,-0.6136,-0.6113,-0.6101,-0.6066,-0.6052,-0.6025,-0.5992,-0.5954,-0.593,-0.5893,-0.584,-0.583,-0.5817,-0.5814,-0.5811,-0.5806,-0.5777,-0.577,-0.5835,-0.5835,-0.5835,0,0,-0.6294,-0.6262,-0.624,-0.6183,-0.6156,-0.6118,-0.6124,-0.6084,-0.6056,-0.6046,-0.5997,-0.5976,-0.5937,-0.5885,-0.5861,-0.5867,-0.5786,-0.5807,-0.5805,-0.5802,-0.5773,-0.5767,-0.5761,-0.5833,-0.5834,-0.5834,0,0,-0.6254,-0.6226,-0.6186,-0.6158,-0.6117,-0.6097,-0.6088,-0.6045,-0.603,-0.598,-0.5973,-0.5939,-0.5875,-0.5848,-0.5826,-0.5775,-0.5771,-0.5764,-0.5745,-0.5717,-0.5712,-0.5707,-0.5689,-0.5683,-0.576,-0.576,-0.576,0,-0.6245,-0.6186,-0.6166,-0.6125,-0.6101,-0.609,-0.6049,-0.6024,-0.5973,-0.5957,-0.5964,-0.5882,-0.5856,-0.5797,-0.5785,-0.5768,-0.5756,-0.5769,-0.5714,-0.5709,-0.5704,-0.5687,-0.568,-0.5759,-0.5759,-0.5759,-0.5759,0,-0.6177,-0.6137,-0.611,-0.606,-0.6032,-0.5992,-0.5966,-0.5941,-0.5931,-0.5911,-0.5861,-0.5828,-0.5785,-0.577,-0.5761,-0.571,-0.5715,-0.5718,-0.5731,-0.5698,-0.5681,-0.5674,-0.5758,-0.5758,-0.5759,-0.5759,0,0,-0.6137,-0.6076,-0.6067,-0.6044,-0.5998,-0.5967,-0.5927,-0.5883,-0.5862,-0.5828,-0.5793,-0.5739,-0.5742,-0.5717,-0.5704,-0.5679,-0.5641,-0.5685,-0.5684,-0.5678,-0.5584,-0.5581,-0.5574,-0.5638,-0.5637,-0.5636,-0.5587,0,-0.6091,-0.6018,-0.5998,-0.5936,-0.5899,-0.5888,-0.5853,-0.5822,-0.5802,-0.5768,-0.5747,-0.5709,-0.5715,-0.57,-0.5674,-0.5651,-0.5622,-0.5654,-0.5607,-0.5605,-0.5616,-0.5565,-0.5562,-0.5517,-0.558,-0.5579,-0.5578,0,-0.6027,-0.599,-0.5925,-0.5883,-0.5867,-0.5835,-0.5794,-0.5762,-0.5726,-0.5714,-0.5686,-0.5675,-0.5634,-0.5649,-0.5592,-0.5614,-0.5594,-0.558,-0.5577,-0.5572,-0.5589,-0.5558,-0.5503,-0.5496,-0.5568,-0.5568,-0.5569,0,-0.6004,-0.5938,-0.589,-0.5871,-0.5822,-0.58,-0.5779,-0.5744,-0.5719,-0.5684,-0.5667,-0.5628,-0.5606,-0.5576,-0.5556,-0.5569,-0.55,-0.5514,-0.5489,-0.549,-0.5475,-0.5476,-0.5415,-0.5462,-0.5462,-0.5463,-0.5463,0,-0.5954,-0.5914,-0.5879,-0.5849,-0.5805,-0.5783,-0.5739,-0.5718,-0.5687,-0.5654,-0.5643,-0.5612,-0.5587,-0.5553,-0.5537,-0.5492,-0.5483,-0.5472,-0.5468,-0.5472,-0.5474,-0.5458,-0.5461,-0.5461,-0.5461,-0.5461,-0.5462,0,-0.592,-0.5895,-0.5842,-0.5799,-0.5788,-0.5757,-0.572,-0.5692,-0.5672,-0.563,-0.5619,-0.5588,-0.5547,-0.5524,-0.5473,-0.5463,-0.5412,-0.541,-0.5424,-0.5422,-0.5399,-0.5401,-0.5326,-0.5315,-0.537,-0.5369,-0.5369,0,-0.589,-0.5858,-0.5812,-0.5789,-0.5767,-0.5729,-0.5704,-0.5681,-0.5656,-0.5613,-0.5589,-0.5548,-0.5513,-0.5449,-0.5423,-0.5384,-0.5381,-0.5357,-0.5375,-0.538,-0.538,-0.5382,-0.5379,-0.5354,-0.5353,-0.5353,-0.5353,0,-0.5838,-0.5827,-0.579,-0.5749,-0.5719,-0.5686,-0.5653,-0.5635,-0.5607,-0.5579,-0.5537,-0.551,-0.5458,-0.5417,-0.5376,-0.5355,-0.5349,-0.5347,-0.5339,-0.5343,-0.5352,-0.5347,-0.5415,-0.5349,-0.5349,-0.535,-0.535,-0.535,-0.5805,-0.5776,-0.5739,-0.5699,-0.5672,-0.5641,-0.5612,-0.5588,-0.5553,-0.5508,-0.5497,-0.5453,-0.5419,-0.5363,-0.5341,-0.5307,-0.5311,-0.53,-0.5297,-0.5294,-0.5293,-0.5358,-0.5299,-0.5299,-0.5299,-0.5299,-0.5299,0,-0.5752,-0.5728,-0.5691,-0.5645,-0.5613,-0.561,-0.5574,-0.5547,-0.5508,-0.5476,-0.5442,-0.5394,-0.5355,-0.5325,-0.5285,-0.5263,-0.526,-0.5254,-0.5255,-0.525,-0.5292,-0.5302,-0.5257,-0.5257,-0.5257,-0.5257,-0.5257,-0.5257,-0.5721,-0.5673,-0.5658,-0.5597,-0.5573,-0.5529,-0.5508,-0.548,-0.5455,-0.5401,-0.5368,-0.5348,-0.5317,-0.5275,-0.5239,-0.5231,-0.5217,-0.5211,-0.5203,-0.5243,-0.5247,-0.5251,-0.5261,-0.5208,-0.5208,-0.5164,-0.5164,-0.5164]},{"header":{"parameterUnit":"m.s-1","parameterCategory":1,"la1":30.2991,"la2":30.254,"lo1":-89.0895,"lo2":-89.0444,"dy":0.0017,"dx":0.0017,"nx":28,"ny":28,"refTime":"2024-02-21T09:00:00:Z","depth":0,"parameterNumber":3,"parameterNumberName":"V-component_of_WINDS"},"data":[0,0,0,0,0,0,0,0,0,0,0,0,0,0,0,0,0,0,0,0,0,0,0,0,0,0,0,0,0,0,0,0,0,0,0,0,0,0,0,0,0,0,0,0,0,0,0,0,0,0,0,0,0,0,0,0,0,0,2.6085,2.6086,0,2.6233,2.6234,2.6236,2.6226,2.6224,2.6221,2.6219,2.637,2.6376,2.6382,0,0,0,0,0,0,0,0,0,0,0,0,0,2.5791,2.5797,2.6084,2.6086,2.6088,2.6232,2.6235,2.6237,2.6226,2.6224,2.6221,2.6218,2.6368,2.6375,2.6382,0,0,0,0,0,0,0,0,0,0,0,0,0,2.5927,2.5799,2.6084,2.61,2.6103,2.6232,2.6235,2.6237,2.6227,2.6223,2.622,2.6217,2.6365,2.6374,2.6383,2.6505,0,0,2.6411,2.6415,0,0,0,0,0,0,0,0,2.5919,2.5938,2.6096,2.61,2.6103,2.6207,2.6186,2.6327,2.6228,2.618,2.6219,2.6215,2.6318,2.6331,2.6366,2.6512,2.6519,2.6412,2.6417,2.6421,2.6424,0,0,0,0,0,0,0,2.591,2.5931,2.6143,2.6098,2.6103,2.61,2.6116,2.6213,2.6266,2.6184,2.6183,2.6201,2.632,2.6357,2.637,2.6521,2.6412,2.642,2.6425,2.6429,2.6775,2.6779,0,0,0,0,0,0,2.5897,2.5924,2.6138,2.6147,2.6001,2.6108,2.6125,2.6177,2.6265,2.6275,2.6204,2.62,2.6343,2.6359,2.6375,2.6525,2.6421,2.643,2.6435,2.6772,2.6776,2.678,0,0,0,0,0,0,2.5891,2.5916,2.6132,2.6036,2.6063,2.6116,2.6175,2.6182,2.622,2.628,2.6289,2.6233,2.6342,2.6362,2.6473,2.653,2.6434,2.6442,2.6767,2.6773,2.6778,2.6825,0,0,0,0,0,0,2.5882,2.5914,2.5961,2.6037,2.6068,2.6229,2.6178,2.6187,2.6236,2.6232,2.6309,2.6319,2.6341,2.646,2.6482,2.6541,2.6449,2.6762,2.677,2.6776,2.6819,2.6831,2.6842,0,0,0,0,0,2.5872,2.5968,2.5964,2.599,2.6128,2.6232,2.625,2.6273,2.624,2.6288,2.6327,2.6317,2.6519,2.6471,2.6496,2.6558,2.6759,2.6768,2.6776,2.6813,2.6829,2.6842,0,0,0,0,0,0,2.5897,2.5978,2.5974,2.6097,2.6158,2.623,2.6291,2.6289,2.636,2.6353,2.6378,2.6396,2.6508,2.6544,2.6489,2.6681,2.6635,2.6649,2.6655,2.667,2.6682,2.6672,2.6457,0,0,0,0,0,2.5917,2.5995,2.6061,2.6163,2.6194,2.6237,2.6283,2.6296,2.636,2.6385,2.6432,2.6494,2.6571,2.6622,2.6697,2.6823,2.684,2.6878,2.6889,2.6899,2.6912,2.6982,2.7,2.6808,2.6808,2.6808,0,0,2.5959,2.6013,2.606,2.617,2.6218,2.6299,2.6259,2.6345,2.6406,2.6398,2.6507,2.6543,2.6613,2.6733,2.6788,2.6766,2.6968,2.691,2.6917,2.6925,2.6993,2.7011,2.7027,2.6814,2.6813,2.6812,0,0,2.6077,2.6125,2.6216,2.6266,2.634,2.6368,2.639,2.6463,2.6487,2.6596,2.6593,2.6664,2.6797,2.6848,2.6891,2.7028,2.7023,2.7052,2.7115,2.7184,2.7199,2.7213,2.7264,2.7282,2.7063,2.7064,2.7064,0,2.612,2.6242,2.6263,2.6352,2.64,2.6397,2.649,2.6537,2.6631,2.6665,2.6639,2.6807,2.6854,2.6986,2.702,2.7054,2.7081,2.7044,2.7195,2.7209,2.7222,2.7271,2.729,2.7067,2.7066,2.7066,2.7066,0,2.6292,2.6376,2.6441,2.6533,2.6589,2.6679,2.6714,2.6768,2.6775,2.6806,2.6918,2.6974,2.7061,2.7092,2.71,2.7226,2.7211,2.7189,2.7144,2.7243,2.729,2.7309,2.7072,2.707,2.7069,2.7069,0,0,2.6431,2.6535,2.6559,2.6601,2.6683,2.6748,2.6837,2.6923,2.6969,2.7034,2.7111,2.7223,2.7205,2.7254,2.7267,2.7327,2.7434,2.7299,2.7301,2.7324,2.7579,2.7596,2.7618,2.743,2.7433,2.7436,2.7574,0,2.656,2.672,2.6742,2.6884,2.6963,2.6961,2.7039,2.7097,2.7128,2.7199,2.7232,2.7313,2.7281,2.7311,2.737,2.7409,2.7486,2.7399,2.7502,2.7506,2.7488,2.7642,2.766,2.7788,2.7592,2.7595,2.7597,0,2.6731,2.6802,2.6952,2.7024,2.7058,2.7128,2.7209,2.7276,2.7342,2.736,2.7415,2.7421,2.7514,2.7462,2.7591,2.7531,2.7574,2.7599,2.7605,2.7618,2.756,2.7661,2.7829,2.7849,2.7626,2.7624,2.7622,0,2.6821,2.6954,2.7061,2.7097,2.7183,2.7233,2.727,2.7333,2.7383,2.7453,2.7486,2.7566,2.761,2.7671,2.7698,2.7657,2.7826,2.7776,2.7845,2.7844,2.7883,2.788,2.8062,2.7906,2.7905,2.7905,2.7905,0,2.6964,2.7056,2.7103,2.7169,2.7273,2.7297,2.7398,2.7434,2.749,2.7564,2.7565,2.7634,2.7664,2.7737,2.7758,2.7863,2.7882,2.79,2.7905,2.7902,2.79,2.7932,2.7925,2.791,2.7909,2.7908,2.7907,0,2.7083,2.7118,2.7235,2.7307,2.7327,2.74,2.7462,2.7526,2.7555,2.7648,2.7671,2.7718,2.7805,2.7837,2.7941,2.7956,2.8078,2.8074,2.8056,2.8058,2.8126,2.812,2.8338,2.8368,2.8189,2.8191,2.8192,0,2.7173,2.7245,2.7324,2.7374,2.7414,2.7493,2.7545,2.7571,2.7625,2.7705,2.776,2.7846,2.7917,2.8055,2.8098,2.8178,2.8178,2.8249,2.819,2.8185,2.8182,2.8179,2.8187,2.826,2.8262,2.8264,2.8265,0,2.733,2.7344,2.7419,2.7501,2.7563,2.7628,2.7691,2.7731,2.7766,2.7826,2.7915,2.797,2.8077,2.8163,2.8246,2.8284,2.8282,2.8282,2.8303,2.8302,2.829,2.83,2.8089,2.8278,2.8277,2.8276,2.8275,2.8275,2.744,2.7504,2.757,2.7654,2.7704,2.7763,2.7828,2.7866,2.7941,2.8031,2.8041,2.8137,2.8201,2.8312,2.8354,2.8429,2.841,2.844,2.8448,2.8455,2.8462,2.8275,2.8444,2.8444,2.8443,2.8443,2.8443,0,2.7599,2.7642,2.7719,2.7808,2.7874,2.7864,2.7934,2.799,2.8074,2.8135,2.8204,2.8307,2.839,2.844,2.8523,2.8574,2.8575,2.8596,2.8594,2.8603,2.8472,2.8448,2.8594,2.8594,2.8594,2.8594,2.8594,2.8593,2.769,2.7799,2.7821,2.7954,2.7996,2.8091,2.8131,2.8186,2.8235,2.835,2.8419,2.8451,2.8507,2.8595,2.8671,2.8684,2.8715,2.8738,2.8749,2.8627,2.8612,2.8597,2.8574,2.8744,2.8744,2.8874,2.8875,2.8876]}]]